Location: Wildlife_Club
(35.6000°N, 81.4330°W)
Time: 14:30:51
(UTC-04:00)

A-11 Canister half - Pass Details

Date: 01 July 2019
Orbit: 1514 x 1686 km, 47.2° (Epoch: 22 August)

Event Time Altitude Azimuth Distance (km) Brightness Sun altitude
Rises 18:20:01 0° 289° (WNW) 4,763 12.8 26.9°
Reaches altitude 10° 18:24:51 10° 269° (W) 3,741 12.7 25.9°
Maximum altitude 18:29:41 15° 237° (WSW) 3,302 11.6 24.9°
Drops below altitude 10° 18:34:29 10° 206° (SSW) 3,681 11.2 24.0°
Sets 18:39:13 0° 185° (S) 4,644 11.4 23.0°
